[[{"header":{"parameterUnit":"m.s-1","parameterCategory":1,"la1":30.2992,"la2":30.254,"lo1":-89.0895,"lo2":-89.0443,"dy":0.0025,"dx":0.0025,"nx":19,"ny":19,"refTime":"2026-05-02T09:00:00:Z","depth":0,"parameterNumber":2,"parameterNumberName":"U-component_of_WINDS"},"data":[0,0,0,-0.2212,-0.2212,-0.2196,-0.2196,-0.2182,-0.2182,0,0,0,0,0,0,0,0,0,0,0,-0.2222,-0.2222,-0.2212,-0.2212,-0.2196,-0.2196,-0.2182,-0.2182,0,0,0,0,0,0,0,0,0,0,0,-0.2222,-0.2222,-0.2222,-0.2212,-0.2196,-0.2196,-0.2182,-0.2192,0,0,0,0,0,0,0,0,0,0,-0.2206,-0.222,-0.2222,-0.2222,-0.2212,-0.2196,-0.2196,-0.2192,-0.2191,-0.2192,0,-0.2195,0,-0.2188,-0.2181,-0.2181,0,0,0,-0.2208,-0.2221,-0.2212,-0.2222,-0.2212,-0.2196,-0.2202,-0.2191,-0.219,-0.2191,-0.2195,-0.2194,-0.2188,-0.2181,-0.2181,-0.2202,-0.2202,0,0,-0.2209,-0.2222,-0.2213,-0.2211,-0.2215,-0.2203,-0.2202,-0.219,-0.2195,-0.2195,-0.2194,-0.2188,-0.2181,-0.2181,-0.2201,-0.2202,0,0,0,-0.2214,-0.2222,-0.2214,-0.2212,-0.2209,-0.2202,-0.2201,-0.2196,-0.2192,-0.2194,-0.2188,-0.2181,-0.2181,-0.2201,-0.2201,-0.2226,0,0,0,-0.2215,-0.2225,-0.2214,-0.2222,-0.2209,-0.2202,-0.2207,-0.2193,-0.2191,-0.2188,-0.2181,-0.2181,-0.2201,-0.2201,-0.2225,-0.2237,0,0,0,-0.2221,-0.2226,-0.2225,-0.2222,-0.2216,-0.2202,-0.2198,-0.2192,-0.2188,-0.2181,-0.2181,-0.22,-0.2201,-0.2224,-0.2235,-0.2245,0,0,0,-0.2232,-0.2248,-0.2226,-0.2241,-0.2216,-0.2218,-0.2197,-0.2198,-0.2196,-0.2181,-0.2201,-0.2201,-0.2224,-0.2233,-0.2244,-0.2257,-0.2264,0,0,-0.2259,-0.2252,-0.226,-0.2239,-0.2248,-0.2219,-0.2231,-0.2218,-0.2206,-0.2203,-0.2204,-0.2226,-0.2234,-0.2245,-0.2295,-0.23,0,0,0,-0.2273,-0.2279,-0.2278,-0.2276,-0.2266,-0.2257,-0.224,-0.2235,-0.2232,-0.2207,-0.2232,-0.2237,-0.2242,-0.2248,-0.2253,-0.2257,-0.2204,-0.2204,-0.2204,-0.233,-0.2313,-0.2325,-0.2306,-0.2304,-0.2286,-0.2282,-0.2272,-0.2256,-0.2262,-0.2262,-0.2294,-0.2301,-0.2304,-0.2308,-0.2267,-0.2267,-0.2267,-0.2267,-0.2368,-0.2374,-0.2351,-0.2355,-0.2337,-0.234,-0.2322,-0.231,-0.231,-0.2293,-0.2297,-0.228,-0.231,-0.2313,-0.2269,-0.2268,-0.2268,-0.2268,-0.2268,-0.2404,-0.2404,-0.2397,-0.2391,-0.2389,-0.2368,-0.2369,-0.2352,-0.2337,-0.2341,-0.2338,-0.2338,-0.2336,-0.2341,-0.2341,-0.2341,-0.2341,-0.2341,-0.2341,-0.2444,-0.2435,-0.2438,-0.2427,-0.2423,-0.2415,-0.2396,-0.2391,-0.2382,-0.237,-0.2369,-0.2353,-0.2316,-0.2307,-0.2343,-0.2343,-0.2342,-0.2342,-0.2342,-0.2491,-0.2477,-0.2482,-0.2477,-0.2463,-0.2461,-0.2439,-0.2431,-0.2424,-0.2425,-0.2407,-0.2382,-0.2374,-0.237,-0.2363,-0.241,-0.241,-0.241,-0.241,-0.2522,-0.2515,-0.2515,-0.251,-0.2502,-0.2482,-0.2487,-0.2471,-0.2452,-0.2447,-0.2438,-0.2426,-0.2423,-0.2416,-0.2412,-0.2405,-0.2462,-0.2462,-0.2462,-0.2549,-0.2541,-0.2549,-0.253,-0.2517,-0.2506,-0.2509,-0.2503,-0.2479,-0.2464,-0.2443,-0.2441,-0.2422,-0.2417,-0.2403,-0.2396,-0.2383,0,0]},{"header":{"parameterUnit":"m.s-1","parameterCategory":1,"la1":30.2992,"la2":30.254,"lo1":-89.0895,"lo2":-89.0443,"dy":0.0025,"dx":0.0025,"nx":19,"ny":19,"refTime":"2026-05-02T09:00:00:Z","depth":0,"parameterNumber":3,"parameterNumberName":"V-component_of_WINDS"},"data":[0,0,0,-7.3992,-7.3995,-7.4104,-7.4105,-7.4251,-7.4253,0,0,0,0,0,0,0,0,0,0,0,-7.3966,-7.3967,-7.3992,-7.3995,-7.4104,-7.4105,-7.4251,-7.4253,0,0,0,0,0,0,0,0,0,0,0,-7.3966,-7.3967,-7.3969,-7.3995,-7.4104,-7.4105,-7.4251,-7.4165,0,0,0,0,0,0,0,0,0,0,-7.4057,-7.404,-7.3967,-7.3969,-7.3996,-7.4104,-7.4105,-7.4161,-7.417,-7.4205,0,-7.424,0,-7.4249,-7.4263,-7.4264,0,0,0,-7.3989,-7.4032,-7.4057,-7.3969,-7.3997,-7.4104,-7.4053,-7.4166,-7.4177,-7.4218,-7.4242,-7.4248,-7.4252,-7.4264,-7.4265,-7.4493,-7.4494,0,0,-7.3983,-7.3989,-7.4049,-7.4064,-7.405,-7.405,-7.4057,-7.4173,-7.4198,-7.4243,-7.4251,-7.4254,-7.4265,-7.4266,-7.4492,-7.4494,0,0,0,-7.397,-7.3985,-7.4006,-7.4058,-7.4078,-7.4053,-7.4061,-7.4193,-7.42,-7.4252,-7.4256,-7.4266,-7.4268,-7.449,-7.4492,-7.4566,0,0,0,-7.3966,-7.3977,-7.4003,-7.4008,-7.4076,-7.4137,-7.4079,-7.4192,-7.4204,-7.4255,-7.4266,-7.427,-7.4489,-7.4492,-7.4561,-7.4599,0,0,0,-7.3957,-7.3975,-7.3994,-7.4008,-7.4055,-7.4135,-7.4148,-7.4194,-7.4207,-7.4264,-7.427,-7.4488,-7.4491,-7.4556,-7.4591,-7.4662,0,0,0,-7.3948,-7.4055,-7.3995,-7.4116,-7.4055,-7.418,-7.4147,-7.424,-7.4297,-7.4267,-7.4489,-7.4492,-7.4555,-7.4587,-7.4657,-7.4724,-7.4752,0,0,-7.4085,-7.4071,-7.4142,-7.4092,-7.4231,-7.4163,-7.4312,-7.4357,-7.4355,-7.4447,-7.4452,-7.4562,-7.4591,-7.4661,-7.4905,-7.4928,0,0,0,-7.4187,-7.4239,-7.4274,-7.4331,-7.4371,-7.4408,-7.4431,-7.4448,-7.4526,-7.4405,-7.4606,-7.4623,-7.4664,-7.4695,-7.4714,-7.475,-7.4507,-7.4507,-7.4506,-7.4389,-7.4385,-7.4502,-7.4512,-7.4567,-7.4592,-7.4636,-7.4663,-7.4639,-7.4688,-7.4715,-7.4864,-7.4901,-7.4915,-7.4952,-7.4749,-7.4749,-7.4749,-7.4749,-7.4591,-7.4663,-7.4634,-7.4737,-7.4732,-7.4817,-7.4845,-7.4826,-7.4904,-7.4842,-7.4878,-7.4812,-7.494,-7.4972,-7.4755,-7.4754,-7.4753,-7.4753,-7.4752,-7.4723,-7.4757,-7.4779,-7.4863,-7.4928,-7.4932,-7.5011,-7.5001,-7.4993,-7.5028,-7.5057,-7.5056,-7.5054,-7.5043,-7.5043,-7.5044,-7.5044,-7.5045,-7.5045,-7.4852,-7.4874,-7.4943,-7.4997,-7.5033,-7.508,-7.5107,-7.5142,-7.5179,-7.5166,-7.5166,-7.5139,-7.4953,-7.4908,-7.5053,-7.5052,-7.505,-7.505,-7.5049,-7.5059,-7.5012,-7.5118,-7.5155,-7.5218,-7.5284,-7.5273,-7.5345,-7.5373,-7.5411,-7.5377,-7.5242,-7.5225,-7.521,-7.5172,-7.5377,-7.5377,-7.5377,-7.5377,-7.5172,-7.5164,-7.5271,-7.5332,-7.539,-7.5391,-7.551,-7.5532,-7.5547,-7.5564,-7.5533,-7.5481,-7.5466,-7.5459,-7.5439,-7.5403,-7.5662,-7.5663,-7.5663,-7.53,-7.5298,-7.5401,-7.5419,-7.5468,-7.5511,-7.5622,-7.5691,-7.5698,-7.5674,-7.5577,-7.5565,-7.5482,-7.5455,-7.5429,-7.5397,-7.5332,0,0]}]]